This demonstration page uses our WeatherBlox Daily Observations layout. Learn more.

Hourly Observations for January 28, 2019

Temp ( °F °C ) Dew Point ( °F °C ) Humidity (%) Winds ( mph kmh ) Pressure ( in mb ) Visibility ( mi km ) Precip ( " mm )
12:15 am 00:15 Partly Cloudy 41 5 30 -1 66 66 NW 20 31 29.77 1008 10 16.09344 0 0
12:35 am 00:35 Mostly Cloudy 41 5 30 -1.1 65 65 NW 18 30 29.77 1008 10 16.09344 0 0
12:55 am 00:55 Cloudy 41 5 29 -1.5 63 63 NW 20 31 29.8 1009 10 16.09344 0 0
1:10 am 01:10 Cloudy 41 5.1 29 -1.7 62 62 NW 22 35 29.8 1009 10 16.09344 0 0
1:35 am 01:35 Mostly Cloudy 41 4.8 29 -1.7 63 63 NNW 28 44 29.8 1009 10 16.09344 0 0
1:55 am 01:55 Mostly Cloudy 39 4.1 29 -1.5 67 67 N 26 43 29.85 1011 10 16.09344 0 0
2:15 am 02:15 Mostly Cloudy 38 3.1 28 -2.2 69 69 NNW 31 50 29.85 1011 10 16.09344 0 0
2:35 am 02:35 Clear 37 2.6 27 -2.9 67 67 NNW 25 41 29.88 1012 10 16.09344 0 0
2:55 am 02:55 Partly Cloudy 36 2.2 28 -2.4 72 72 NW 14 22 29.88 1012 10 16.09344 0 0
3:15 am 03:15 Cloudy 37 2.5 27 -2.7 69 69 NNW 24 39 29.88 1012 10 16.09344 0 0
3:35 am 03:35 Cloudy 37 2.5 26 -3.4 65 65 NNW 25 41 29.91 1013 10 16.09344 0 0
3:55 am 03:55 Partly Cloudy 35 1.4 22 -5.6 60 60 NNW 31 50 29.97 1015 10 16.09344 0 0
4:15 am 04:15 Partly Cloudy 34 1 22 -5.6 62 62 NNW 28 44 29.97 1015 10 16.09344 0 0
4:35 am 04:35 Mostly Cloudy 34 1 23 -5.2 64 64 NNW 30 48 29.97 1015 10 16.09344 0 0
4:55 am 04:55 Mostly Cloudy 34 0.9 20 -6.7 57 57 NNW 41 67 30 1016 10 16.09344 0 0
5:15 am 05:15 Partly Cloudy 32 0.1 19 -7 59 59 NNW 37 59 30 1016 10 16.09344 0 0
5:35 am 05:35 Mostly Cloudy 32 0 19 -7.3 58 58 NNW 35 56 30.06 1018 10 16.09344 0 0
5:55 am 05:55 Cloudy 32 0 18 -7.9 56 56 NNW 39 63 30.06 1018 10 16.09344 0 0
6:15 am 06:15 Mostly Cloudy 31 -0.4 18 -7.8 58 58 NNW 35 56 30.06 1018 10 16.09344 0 0
6:35 am 06:35 Clear 31 -0.7 18 -7.6 60 60 NNW 37 59 30.09 1019 10 16.09344 0 0
6:55 am 06:55 Partly Cloudy 30 -1 18 -7.8 60 60 NNW 36 57 30.09 1019 10 16.09344 0 0
7:15 am 07:15 Mostly Cloudy 29 -1.7 17 -8.1 62 62 NNW 33 54 30.12 1020 10 16.09344 0 0
7:35 am 07:35 Mostly Cloudy 28 -2.2 17 -8.3 63 63 NNW 30 48 30.18 1022 10 16.09344 0 0
7:55 am 07:55 Cloudy 28 -2 17 -8.1 63 63 NNW 28 44 30.18 1022 10 16.09344 0 0
8:15 am 08:15 Cloudy 29 -1.8 17 -8.6 60 60 NNW 29 46 30.15 1021 10 16.09344 0 0
8:35 am 08:35 Cloudy 28 -2 16 -8.7 61 61 NNW 33 54 30.18 1022 10 16.09344 0 0
8:55 am 08:55 Cloudy 29 -1.7 16 -8.9 58 58 NNW 33 54 30.15 1021 10 16.09344 0 0
9:15 am 09:15 Cloudy 29 -1.6 16 -8.7 59 59 NNW 31 50 30.15 1021 10 16.09344 0 0
9:35 am 09:35 Cloudy 30 -1.1 17 -8.3 58 58 NNW 35 56 30.18 1022 10 16.09344 0 0
9:55 am 09:55 Cloudy 29 -1.6 16 -8.8 58 58 NNW 37 59 30.18 1022 10 16.09344 0 0
10:15 am 10:15 Partly Cloudy 29 -1.9 13 -10.4 53 53 NNW 40 65 30.24 1024 10 16.09344 0 0
10:35 am 10:35 Partly Cloudy 30 -1.2 14 -10.1 51 51 NNW 33 54 30.21 1023 10 16.09344 0 0
10:55 am 10:55 Partly Cloudy 30 -1 13 -10.5 49 49 NNW 36 57 30.21 1023 10 16.09344 0 0
11:15 am 11:15 Partly Cloudy 30 -1 13 -10.4 49 49 NNW 36 57 30.21 1023 10 16.09344 0 0
11:35 am 11:35 Partly Cloudy 31 -0.6 14 -10.2 49 49 NNW 29 46 30.21 1023 10 16.09344 0 0
11:55 am 11:55 Partly Cloudy 32 -0.1 14 -10.2 47 47 NNW 25 41 30.21 1023 10 16.09344 0 0
12:15 pm 12:15 Partly Cloudy 32 0 14 -10.2 47 47 NNW 31 50 30.24 1024 10 16.09344 0 0
12:35 pm 12:35 Mostly Cloudy 32 -0.2 13 -10.5 46 46 NNW 30 48 30.24 1024 10 16.09344 0 0
12:55 pm 12:55 Cloudy 32 -0.1 13 -10.4 46 46 NNW 25 41 30.21 1023 10 16.09344 0 0
1:15 pm 13:15 Cloudy 32 -0.1 13 -10.7 45 45 NNW 28 44 30.21 1023 10 16.09344 0 0
1:35 pm 13:35 Cloudy 33 0.5 14 -10 46 46 NNW 29 46 30.21 1023 10 16.09344 0 0
1:55 pm 13:55 Cloudy 33 0.5 13 -10.5 44 44 NNW 31 50 30.21 1023 10 16.09344 0 0
2:15 pm 14:15 Mostly Cloudy 33 0.4 14 -9.8 47 47 NW 33 54 30.21 1023 10 16.09344 0 0
2:35 pm 14:35 Mostly Cloudy 33 0.4 13 -10.7 44 44 NW 32 52 30.21 1023 10 16.09344 0 0
2:55 pm 14:55 Mostly Cloudy 31 -0.4 12 -11.2 44 44 NW 29 46 30.21 1023 10 16.09344 0 0
3:15 pm 15:15 Partly Cloudy 32 0 10 -12 40 40 NNW 29 46 30.24 1024 10 16.09344 0 0
3:35 pm 15:35 Partly Cloudy 32 0 8 -13.2 37 37 NW 31 50 30.24 1024 10 16.09344 0 0
3:55 pm 15:55 Partly Cloudy 32 0.2 9 -12.8 37 37 NNW 28 44 30.24 1024 10 16.09344 0 0
4:15 pm 16:15 Partly Cloudy 32 0.1 4 -15.3 31 31 NNW 31 50 30.24 1024 10 16.09344 0 0
4:35 pm 16:35 Sunny 32 0 -1 -18.6 23 23 NNW 33 54 30.24 1024 10 16.09344 0 0
4:55 pm 16:55 Sunny 32 -0.2 0 -17.6 26 26 NW 30 48 30.27 1025 10 16.09344 0 0
5:15 pm 17:15 Sunny 31 -0.6 -1 -18.2 25 25 N 24 39 30.27 1025 10 16.09344 0 0
5:35 pm 17:35 Sunny 29 -1.7 1 -17.2 30 30 NNW 18 30 30.3 1026 10 16.09344 0 0
5:55 pm 17:55 Clear 28 -2.5 3 -16.1 35 35 N 14 22 30.3 1026 10 16.09344 0 0
6:15 pm 18:15 Clear 27 -2.8 5 -15.2 38 38 N 13 20 30.3 1026 10 16.09344 0 0
6:35 pm 18:35 Clear 26 -3.6 7 -14.1 44 44 N 12 19 30.36 1028 10 16.09344 0 0
6:55 pm 18:55 Clear 26 -3.5 8 -13.4 47 47 N 10 17 30.33 1027 10 16.09344 0 0
7:15 pm 19:15 Clear 24 -4.2 9 -13 51 51 NNW 8 13 30.36 1028 10 16.09344 0 0
7:35 pm 19:35 Clear 23 -4.8 9 -12.7 54 54 NNW 8 13 30.36 1028 10 16.09344 0 0
7:55 pm 19:55 Clear 24 -4.5 10 -12.4 54 54 NNW 8 13 30.36 1028 10 16.09344 0 0
8:15 pm 20:15 Clear 23 -4.9 10 -12.3 57 57 NW 8 13 30.36 1028 10 16.09344 0 0
8:35 pm 20:35 Clear 21 -6.2 10 -12.5 61 61 WNW 6 9 30.36 1028 10 16.09344 0 0
8:55 pm 20:55 Clear 21 -6.3 10 -12 64 64 WNW 7 11 30.36 1028 10 16.09344 0 0
9:15 pm 21:15 Clear 20 -6.7 11 -11.6 68 68 WNW 8 13 30.39 1029 10 16.09344 0 0
9:35 pm 21:35 Clear 20 -6.8 12 -11.3 71 71 W 6 9 30.39 1029 10 16.09344 0 0
9:55 pm 21:55 Clear 19 -7.5 10 -12 70 70 W 9 15 30.36 1028 10 16.09344 0 0
10:15 pm 22:15 Clear 19 -7 10 -12 68 68 W 7 11 30.36 1028 10 16.09344 0 0
10:35 pm 22:35 Clear 19 -7.4 10 -12 70 70 W 8 13 30.36 1028 10 16.09344 0 0
10:55 pm 22:55 Clear 18 -7.6 11 -11.6 73 73 W 7 11 30.33 1027 10 16.09344 0 0
11:15 pm 23:15 Clear 18 -8 11 -11.9 74 74 W 7 11 30.33 1027 10 16.09344 0 0
11:35 pm 23:35 Partly Cloudy 19 -7.2 11 -11.5 72 72 WSW 8 13 30.33 1027 10 16.09344 0 0
11:55 pm 23:55 Mostly Cloudy 21 -6.2 11 -11.5 66 66 WSW 9 15 30.27 1025 10 16.09344 0 0

Powered by AerisWeather